sat.trackr.live / text

‹ back to catalog

ONEWEB-0045

NORAD 45151 · 2020-008W

PAYLOAD ACTIVE UNKNOWN

§ Identity

Operator
Country
UK
Launch date
2020-02-06
Launch site
TYMSC
Launch vehicle
Mass (kg)
RCS (m²)

Purposes: comms

External: N2YO · Heavens-Above · Gunter

§ Orbital elements

Epoch: 2026-05-25T02:55:43.328064Z

Period
109.81 min
Inclination
87.8919°
Eccentricity
0.0001871
Mean motion
13.11415287 rev/d
Perigee alt
1,216.3 km
Apogee alt
1,219.1 km
Semi-major
7,595.8 km
B*
1.4925e-3
RAAN
25.6468°
Arg perigee
78.6695°
Mean anomaly
281.4643°
Rev number
30,738

§ Raw data

ONEWEB-00451 45151U 20008W   26145.12202926  .00000542  00000+0  14925-2 0  99912 45151  87.8919  25.6468 0001871  78.6695 281.4643 13.11415287307381

JSON: /api/v1/satellites/45151 · /tle

For live sub-satellite position, see the globe view (requires WebGL).

§ Visibility from observer

Set your observer location to see the next 7 days of passes ≥ 10°. The values pass through the URL so the page stays shareable.

No JS? Fill the form by hand. The geolocation button needs JavaScript.